Weather History for Westfield, MA

Change the Weather History Date:

Sunday, February 3, 2013

  Actual Average Record
Temperature  
Mean Temperature 23 °F -  
Max Temperature 30 °F 33 °F 50 °F (2006)
Min Temperature 16 °F 15 °F 3 °F (1975)
Degree Days  
Heating Degree Days 42    
Moisture  
Dew Point 14 °F    
Average Humidity 68    
Maximum Humidity 88    
Minimum Humidity 47    
Precipitation  
Precipitation 0.00 in - - ()
Sea Level Pressure  
Sea Level Pressure 29.89 in    
Wind  
Wind Speed 2 mph (NNW)    
Max Wind Speed 6 mph    
Max Gust Speed -    
Visibility 10 miles    
Events      
Averages and records for this station are not official NWS values.
T = Trace of Precipitation, MM = Missing Value Source: NWS Daily Summary

Daily Weather History Graph

Daily Weather History Graph

Search for Another Location

Airport:

Trip Planner

Search our weather history database for the weather conditions in past years. The results will help you decide how hot, cold, wet, or windy it might be!

Date:

Astronomy

Feb. 03, 2013 Rise Set
Actual Time 7:01 AM EST 5:08 PM EST
Civil Twilight 6:32 AM EST 5:37 PM EST
Nautical Twilight 5:58 AM EST 6:11 PM EST
Astronomical Twilight 5:26 AM EST 6:44 PM EST
Moon 12:26 AM EST (2/3) 10:42 AM EST (2/3)
Length of Visible Light 11h 05m
Length of Day
10h 06m
Waning Gibbous, 49% of the Moon is Illuminated
Feb 3
Waning Gibbous
Feb 10
New
Feb 17
First Quarter
Feb 25
Full
Mar 4
Last Quarter

Hourly Weather History & Observations

Time (EST) Temp. Windchill Dew Point Humidity Pressure Visibility Wind Dir Wind Speed Gust Speed Precip Events Conditions
12:53 AM 23.0 °F 18.4 °F 15.1 °F 72% 30.05 in 10.0 mi SW 3.5 mph - 0.00 in   Overcast
1:53 AM 21.9 °F - 16.0 °F 78% 30.04 in 10.0 mi Calm Calm - N/A   Overcast
2:53 AM 21.9 °F - 16.0 °F 78% 30.02 in 10.0 mi Calm Calm - 0.00 in   Overcast
3:53 AM 21.9 °F - 16.0 °F 78% 30.00 in 10.0 mi Calm Calm - N/A   Clear
4:53 AM 19.0 °F - 15.1 °F 85% 29.99 in 10.0 mi Calm Calm - N/A   Clear
5:53 AM 17.1 °F 11.7 °F 14.0 °F 88% 29.98 in 9.0 mi North 3.5 mph - N/A   Clear
6:53 AM 16.0 °F - 12.0 °F 84% 29.98 in 9.0 mi Calm Calm - N/A   Clear
7:53 AM 16.0 °F - 12.0 °F 84% 30.00 in 9.0 mi Calm Calm - N/A   Mostly Cloudy
8:53 AM 21.0 °F - 16.0 °F 81% 29.99 in 10.0 mi Calm Calm - N/A   Mostly Cloudy
9:53 AM 24.1 °F 17.0 °F 16.0 °F 71% 29.96 in 10.0 mi NNW 5.8 mph - N/A   Scattered Clouds
10:53 AM 26.1 °F 21.9 °F 12.9 °F 58% 29.94 in 10.0 mi North 3.5 mph - N/A   Scattered Clouds
11:53 AM 28.9 °F 23.9 °F 12.9 °F 51% 29.89 in 10.0 mi Variable 4.6 mph - N/A   Mostly Cloudy
12:53 PM 28.9 °F 23.9 °F 12.9 °F 51% 29.85 in 10.0 mi NNW 4.6 mph - N/A   Overcast
1:53 PM 28.9 °F - 12.0 °F 49% 29.83 in 10.0 mi Calm Calm - N/A   Clear
2:53 PM 30.0 °F 25.2 °F 12.0 °F 47% 29.81 in 10.0 mi North 4.6 mph - N/A   Overcast
3:53 PM 30.0 °F - 12.0 °F 47% 29.79 in 10.0 mi Calm Calm - N/A   Overcast
4:53 PM 28.0 °F - 12.0 °F 51% 29.78 in 10.0 mi Calm Calm - N/A   Mostly Cloudy
5:53 PM 27.0 °F - 12.9 °F 56% 29.78 in 10.0 mi Calm Calm - N/A   Mostly Cloudy
6:53 PM 24.1 °F - 15.1 °F 69% 29.79 in 10.0 mi Calm Calm - N/A   Mostly Cloudy
7:53 PM 21.9 °F - 14.0 °F 72% 29.79 in 10.0 mi Calm Calm - N/A   Partly Cloudy
8:53 PM 21.9 °F - 15.1 °F 75% 29.80 in 10.0 mi Calm Calm - N/A   Mostly Cloudy
9:53 PM 21.9 °F - 15.1 °F 75% 29.79 in 10.0 mi Calm Calm - N/A   Mostly Cloudy
10:53 PM 19.9 °F - 15.1 °F 81% 29.78 in 10.0 mi Calm Calm - N/A   Scattered Clouds
11:53 PM 23.0 °F 18.4 °F 10.9 °F 60% 29.78 in 10.0 mi NW 3.5 mph - N/A   Scattered Clouds